[[{"header":{"parameterUnit":"m.s-1","parameterCategory":1,"la1":30.2991,"la2":30.254,"lo1":-89.0895,"lo2":-89.0444,"dy":0.0017,"dx":0.0017,"nx":28,"ny":28,"refTime":"2024-05-24T21:00:00:Z","depth":0,"parameterNumber":2,"parameterNumberName":"U-component_of_WINDS"},"data":[0,0,0,0,0,0,0,0,0,0,0,0,0,0,0,0,0,0,0,0,0,0,0,0,0,0,0,0,0,0,0,0,0,0,0,0,0,0,0,0,0,0,0,0,0,0,0,0,0,0,0,0,0,0,0,0,0,0,1.0307,1.0309,0,1.0456,1.0458,1.0459,1.0521,1.052,1.052,1.052,1.067,1.0674,1.0678,0,0,0,0,0,0,0,0,0,0,0,0,0,1.0074,1.0078,1.0307,1.0309,1.0311,1.0456,1.0458,1.046,1.0521,1.052,1.052,1.052,1.0669,1.0674,1.0679,0,0,0,0,0,0,0,0,0,0,0,0,0,1.0194,1.0079,1.0307,1.0359,1.0365,1.0455,1.0458,1.046,1.0521,1.052,1.052,1.0519,1.0667,1.0673,1.068,1.0729,0,0,1.0699,1.0702,0,0,0,0,0,0,0,0,1.0187,1.0203,1.0349,1.0356,1.0363,1.0469,1.0431,1.055,1.0521,1.0462,1.052,1.0519,1.0604,1.0615,1.0644,1.0736,1.0742,1.07,1.0704,1.0707,1.0708,0,0,0,0,0,0,0,1.0179,1.0196,1.0366,1.0351,1.0359,1.0374,1.0391,1.0454,1.0533,1.0467,1.0472,1.0488,1.0607,1.0638,1.0648,1.0745,1.07,1.0705,1.0709,1.0712,1.0884,1.0884,0,0,0,0,0,0,1.0162,1.0189,1.0361,1.0371,1.0272,1.0379,1.0397,1.0436,1.0533,1.0547,1.0489,1.0491,1.0627,1.064,1.0654,1.0718,1.0706,1.0713,1.0716,1.0883,1.0884,1.0885,0,0,0,0,0,0,1.0157,1.0177,1.0355,1.0281,1.0305,1.0383,1.0426,1.0439,1.047,1.0549,1.0564,1.0506,1.0627,1.0644,1.071,1.0724,1.0715,1.0721,1.0882,1.0883,1.0884,1.0846,0,0,0,0,0,0,1.015,1.0175,1.0195,1.0281,1.0309,1.041,1.0427,1.0442,1.0481,1.0485,1.0569,1.0583,1.0628,1.07,1.0716,1.0732,1.0726,1.0881,1.0883,1.0884,1.0846,1.0845,1.0845,0,0,0,0,0,1.0141,1.0178,1.0196,1.0216,1.0336,1.041,1.0426,1.0478,1.0482,1.0502,1.0553,1.058,1.0719,1.0706,1.0725,1.0743,1.0881,1.0882,1.0884,1.0847,1.0846,1.0845,0,0,0,0,0,0,1.009,1.019,1.0211,1.0276,1.0335,1.0421,1.0448,1.0476,1.0534,1.0535,1.0597,1.0615,1.0675,1.0716,1.0699,1.0796,1.0802,1.0807,1.0767,1.0767,1.0766,1.0755,1.0732,0,0,0,0,0,1.0087,1.014,1.0224,1.0273,1.0302,1.037,1.0404,1.0439,1.0502,1.0526,1.0583,1.0641,1.0699,1.0735,1.0792,1.0852,1.0871,1.0874,1.0873,1.0872,1.0876,1.0911,1.0913,1.089,1.089,1.089,0,0,1.008,1.0141,1.0171,1.0265,1.0314,1.0367,1.039,1.0445,1.0485,1.0535,1.06,1.0643,1.0713,1.0775,1.0806,1.0811,1.0887,1.0874,1.0873,1.0878,1.0913,1.0915,1.0917,1.0891,1.0891,1.089,0,0,1.0095,1.0146,1.0193,1.0242,1.0316,1.0361,1.0372,1.0454,1.0485,1.0551,1.059,1.0637,1.0734,1.0783,1.082,1.0851,1.0878,1.0868,1.0865,1.0897,1.0899,1.0901,1.0912,1.0916,1.0872,1.0872,1.0872,0,1.0077,1.0159,1.0214,1.0267,1.0307,1.0355,1.0402,1.0447,1.0535,1.0562,1.0566,1.0689,1.0739,1.0814,1.0822,1.085,1.0864,1.0859,1.0895,1.0897,1.09,1.0911,1.0915,1.087,1.087,1.087,1.0871,0,1.0133,1.0189,1.0218,1.0303,1.0346,1.0396,1.0458,1.0495,1.0526,1.057,1.0636,1.0698,1.0768,1.0788,1.0819,1.0867,1.0868,1.0883,1.089,1.0899,1.0911,1.0916,1.0868,1.0868,1.0869,1.0869,0,0,1.012,1.0235,1.0244,1.0283,1.0368,1.0413,1.0464,1.0533,1.0564,1.0623,1.0667,1.0748,1.0762,1.0804,1.084,1.0869,1.089,1.088,1.0883,1.088,1.0946,1.0935,1.0939,1.0908,1.0909,1.091,1.0941,0,1.0146,1.0242,1.0293,1.0367,1.0419,1.0464,1.0509,1.0566,1.0608,1.0658,1.0704,1.076,1.0775,1.08,1.0831,1.0881,1.0904,1.0879,1.0949,1.0951,1.0931,1.0946,1.0934,1.096,1.0945,1.0946,1.0947,0,1.019,1.0249,1.0328,1.0407,1.0431,1.047,1.0538,1.0585,1.0649,1.0678,1.0724,1.076,1.0815,1.0818,1.0895,1.0877,1.0908,1.0937,1.0939,1.0948,1.095,1.0955,1.097,1.0974,1.0955,1.0954,1.0954,0,1.0173,1.0272,1.0332,1.0364,1.0458,1.0484,1.0524,1.0588,1.0627,1.0685,1.071,1.0774,1.0808,1.0856,1.0908,1.0905,1.0979,1.0987,1.1004,1.1003,1.1018,1.1017,1.1039,1.1038,1.1038,1.1038,1.1038,0,1.0197,1.0244,1.0326,1.0363,1.0416,1.0474,1.0524,1.0568,1.0624,1.067,1.0713,1.0754,1.082,1.0869,1.091,1.0967,1.0982,1.1007,1.1017,1.1003,1.1,1.1025,1.1024,1.1039,1.1038,1.1038,1.1038,0,1.0188,1.0245,1.0313,1.0396,1.0418,1.0453,1.0524,1.0561,1.0605,1.0662,1.0678,1.0747,1.0808,1.0864,1.0944,1.0971,1.1029,1.1042,1.1008,1.1013,1.1028,1.1026,1.1067,1.1075,1.1068,1.1068,1.1068,0,1.02,1.0237,1.0323,1.0357,1.0396,1.045,1.049,1.0547,1.0586,1.0662,1.069,1.0753,1.0808,1.0902,1.0958,1.102,1.1035,1.1045,1.1044,1.1029,1.1035,1.1033,1.1036,1.1044,1.1044,1.1044,1.1044,0,1.0215,1.0241,1.0296,1.0361,1.0407,1.0461,1.0516,1.0541,1.0609,1.065,1.0713,1.0755,1.0837,1.0899,1.0967,1.1007,1.1037,1.1043,1.1051,1.1037,1.1016,1.1028,1.1005,1.1042,1.1043,1.1043,1.1043,1.1043,1.0217,1.0252,1.0318,1.0378,1.0425,1.0476,1.0515,1.0564,1.0617,1.0689,1.0719,1.0783,1.0846,1.094,1.098,1.1029,1.1036,1.1046,1.1049,1.1051,1.1048,1.1007,1.1042,1.1042,1.1042,1.1042,1.1042,0,1.0234,1.0279,1.0334,1.041,1.0457,1.048,1.0542,1.058,1.0635,1.0692,1.0744,1.0816,1.0876,1.0938,1.1001,1.1029,1.1044,1.1044,1.1043,1.1052,1.1039,1.1026,1.1031,1.1031,1.1031,1.1031,1.1031,1.1031,1.0249,1.0309,1.0343,1.0427,1.0472,1.0535,1.0568,1.0614,1.066,1.0738,1.0789,1.0828,1.0887,1.0955,1.1011,1.1028,1.1049,1.1045,1.1065,1.1052,1.1053,1.1053,1.1042,1.1049,1.1049,1.1074,1.1074,1.1074]},{"header":{"parameterUnit":"m.s-1","parameterCategory":1,"la1":30.2991,"la2":30.254,"lo1":-89.0895,"lo2":-89.0444,"dy":0.0017,"dx":0.0017,"nx":28,"ny":28,"refTime":"2024-05-24T21:00:00:Z","depth":0,"parameterNumber":3,"parameterNumberName":"V-component_of_WINDS"},"data":[0,0,0,0,0,0,0,0,0,0,0,0,0,0,0,0,0,0,0,0,0,0,0,0,0,0,0,0,0,0,0,0,0,0,0,0,0,0,0,0,0,0,0,0,0,0,0,0,0,0,0,0,0,0,0,0,0,0,4.0874,4.0874,0,4.0858,4.0858,4.0858,4.0837,4.0837,4.0836,4.0836,4.0817,4.0817,4.0817,0,0,0,0,0,0,0,0,0,0,0,0,0,4.0887,4.0887,4.0874,4.0874,4.0874,4.0858,4.0858,4.0857,4.0837,4.0837,4.0836,4.0836,4.0817,4.0817,4.0817,0,0,0,0,0,0,0,0,0,0,0,0,0,4.0877,4.0887,4.0874,4.0862,4.086,4.0858,4.0858,4.0857,4.0837,4.0837,4.0836,4.0836,4.0818,4.0817,4.0817,4.0825,0,0,4.0816,4.0816,0,0,0,0,0,0,0,0,4.0877,4.0876,4.0864,4.0863,4.0861,4.0849,4.0855,4.0846,4.0837,4.0846,4.0836,4.0835,4.0828,4.0827,4.0825,4.0824,4.0823,4.0816,4.0816,4.0816,4.0816,0,0,0,0,0,0,0,4.0878,4.0877,4.0868,4.0864,4.0862,4.0857,4.0855,4.0854,4.084,4.0845,4.0843,4.0842,4.0827,4.0825,4.0824,4.0823,4.0816,4.0816,4.0816,4.0816,4.0829,4.0829,0,0,0,0,0,0,4.0881,4.0878,4.0868,4.0867,4.0868,4.0857,4.0855,4.0853,4.084,4.0837,4.0842,4.0841,4.0826,4.0825,4.0824,4.0832,4.0816,4.0816,4.0815,4.0828,4.0829,4.083,0,0,0,0,0,0,4.0881,4.088,4.0869,4.0872,4.087,4.0857,4.0856,4.0853,4.0851,4.0838,4.0835,4.0843,4.0826,4.0824,4.0825,4.0832,4.0815,4.0815,4.0828,4.0829,4.0829,4.085,0,0,0,0,0,0,4.0882,4.088,4.0884,4.0872,4.087,4.0871,4.0856,4.0853,4.0851,4.0849,4.0838,4.0835,4.0825,4.0826,4.0825,4.0831,4.0815,4.0827,4.0828,4.0829,4.0849,4.0852,4.0854,0,0,0,0,0,4.0882,4.0889,4.0884,4.0883,4.0874,4.0871,4.087,4.0859,4.0852,4.0854,4.0846,4.0836,4.0831,4.0826,4.0825,4.0831,4.0827,4.0828,4.0829,4.0848,4.0851,4.0854,0,0,0,0,0,0,4.0901,4.0888,4.0881,4.0885,4.088,4.0868,4.0871,4.0863,4.0858,4.0857,4.0842,4.084,4.0843,4.0837,4.0831,4.0838,4.0827,4.0828,4.0842,4.0845,4.0848,4.0849,4.0815,0,0,0,0,0,4.0906,4.0905,4.0894,4.0898,4.0896,4.0884,4.0883,4.0875,4.0868,4.0865,4.0857,4.0851,4.0848,4.0846,4.0843,4.0848,4.0845,4.0852,4.0854,4.0857,4.0857,4.086,4.0863,4.0833,4.0833,4.0833,0,0,4.0915,4.0908,4.0908,4.0902,4.0897,4.0896,4.0882,4.0882,4.0882,4.0865,4.0866,4.086,4.0852,4.0855,4.0856,4.085,4.0865,4.0858,4.086,4.086,4.0862,4.0865,4.0867,4.0834,4.0834,4.0834,0,0,4.0932,4.0927,4.093,4.0926,4.0918,4.0911,4.0912,4.0901,4.0897,4.0898,4.0885,4.0885,4.088,4.0875,4.0872,4.0889,4.0879,4.0888,4.0901,4.0904,4.0906,4.0908,4.0914,4.0917,4.0889,4.0889,4.0889,0,4.0944,4.0944,4.0933,4.0934,4.0932,4.0918,4.0921,4.0917,4.0909,4.0907,4.0901,4.0896,4.0889,4.0892,4.0896,4.0894,4.0894,4.0889,4.0907,4.0909,4.091,4.0916,4.0918,4.089,4.089,4.089,4.089,0,4.096,4.096,4.0963,4.0957,4.0955,4.0957,4.0946,4.0946,4.0938,4.0931,4.0932,4.0924,4.092,4.092,4.0912,4.0921,4.0918,4.091,4.0898,4.0915,4.092,4.0922,4.0892,4.0891,4.0891,4.0891,0,0,4.0987,4.0975,4.0977,4.0974,4.0965,4.0965,4.0967,4.0963,4.0963,4.0958,4.0959,4.0956,4.0949,4.0945,4.0937,4.094,4.0954,4.0931,4.093,4.0935,4.0964,4.097,4.0973,4.0948,4.0948,4.0948,4.0965,0,4.1002,4.1005,4.0996,4.1001,4.1001,4.0988,4.099,4.0985,4.0979,4.0978,4.097,4.0969,4.0959,4.0957,4.0959,4.0952,4.0959,4.095,4.0948,4.0948,4.0951,4.0975,4.0982,4.0998,4.0966,4.0967,4.0967,0,4.102,4.1017,4.1022,4.1015,4.1014,4.1016,4.1012,4.1011,4.1005,4.1001,4.0998,4.0989,4.099,4.098,4.0981,4.0975,4.0974,4.097,4.0971,4.097,4.0958,4.0975,4.1002,4.1005,4.097,4.097,4.097,0,4.1039,4.1037,4.104,4.1038,4.1028,4.103,4.1026,4.102,4.1019,4.1015,4.1014,4.1011,4.1009,4.1006,4.0997,4.099,4.1,4.0988,4.0996,4.0996,4.0998,4.0998,4.1025,4.0997,4.0997,4.0997,4.0997,0,4.1057,4.1061,4.1048,4.105,4.1054,4.1044,4.1048,4.1043,4.1038,4.1038,4.1027,4.1028,4.1015,4.1015,4.1007,4.101,4.1009,4.1005,4.1003,4.1006,4.1007,4.1005,4.1003,4.0998,4.0998,4.0998,4.0998,0,4.1079,4.1071,4.1073,4.1065,4.1063,4.1067,4.1059,4.1061,4.1054,4.1055,4.1055,4.1045,4.1044,4.1034,4.103,4.1025,4.1031,4.1027,4.1033,4.1032,4.104,4.1039,4.1067,4.107,4.104,4.1041,4.1041,0,4.1091,4.1093,4.1086,4.1086,4.1083,4.1083,4.1082,4.1072,4.1071,4.1065,4.1067,4.1066,4.1063,4.1062,4.1054,4.1052,4.1047,4.1057,4.1047,4.105,4.1048,4.1048,4.1048,4.1059,4.106,4.106,4.106,0,4.1112,4.1109,4.1108,4.1106,4.1105,4.1102,4.1099,4.11,4.1089,4.1089,4.1088,4.1087,4.1084,4.1082,4.1078,4.1074,4.1065,4.1064,4.1065,4.1068,4.1072,4.107,4.1039,4.1063,4.1063,4.1063,4.1062,4.1062,4.113,4.1132,4.1127,4.1127,4.1124,4.1121,4.1123,4.1117,4.1116,4.1114,4.1108,4.1108,4.1103,4.1097,4.1094,4.1094,4.1089,4.1091,4.1091,4.1092,4.1094,4.1072,4.1093,4.1093,4.1093,4.1093,4.1093,0,4.1151,4.1148,4.1147,4.1144,4.1144,4.1137,4.1133,4.1133,4.1134,4.113,4.1129,4.1128,4.1127,4.112,4.1118,4.1119,4.1115,4.1119,4.1119,4.1118,4.1098,4.1097,4.1122,4.1122,4.1122,4.1122,4.1122,4.1122,4.1162,4.1165,4.1161,4.1164,4.116,4.1161,4.116,4.1158,4.1155,4.1155,4.1154,4.115,4.1145,4.1142,4.1141,4.1139,4.1139,4.1144,4.114,4.1122,4.1119,4.1116,4.1115,4.1144,4.1144,4.116,4.116,4.116]}]]